Location: Tamazert
(32.6352°N, 5.2072°W)
Time: 16:21:31
(UTC+00:00)

Transit 2A Rocket - Pass Details

Date: 07 October 2022
Orbit: 589 x 912 km, 66.7° (Epoch: 07 December)

Event Time Altitude Azimuth Distance (km) Brightness Sun altitude
Rises 12:58:15 0° 353° (N) 3,053 7.8 50.0°
Reaches altitude 10° 13:01:16 10° 13° (NNE) 2,197 7.1 49.8°
Maximum altitude 13:04:36 18° 55° (NE) 1,802 6.8 49.5°
Drops below altitude 10° 13:08:07 10° 96° (E) 2,336 7.5 49.2°
Sets 13:11:26 0° 115° (ESE) 3,330 8.3 48.9°
